TIANMU-1 17

Last updated on Tue Jan 14 2025 00:02:18 GMT+0000 (Coordinated Universal Time)

1 58702U 24004C 25013.58295314 .00007702 00000+0 36817-3 0 9993 2 58702 97.4563 197.4152 0006958 37.6696 322.5025 15.19264238 56665
UTC large
Height (km)
Speed (km/s)
/
Latitude / Longitude
Inclination (degrees)
Orbital Period (minutes)
Azimuth
Elevation
Range (km)
Doppler Factor

Next 0 passes for location: London (51.5072 / 0.1276)

Sorry there are no passes over London.